Theta_e
332 331 333 331 331 328 325 322 320 319 319 318 318 316 315 314 312 311 310 309 307 306 304 303 303 303 302 302 302 302 303 304 305 306 309 312 312 309 312 318 318 319 320 322 322 323 324 324 323 322 322 322 322 322 321 320 320 319 318 317 317 316 315 314 314 314 314 313 313 313 313 313 313 313 314 314 314 314 314 315 315 315 315 316 316
335 333 332 331 330 327 326 324 320 320 320 319 318 316 314 313 313 312 310 308 306 304 303 302 301 301 301 300 300 300 301 301 302 304 305 307 310 309 306 311 317 317 318 318 320 321 322 322 322 321 321 321 320 321 320 319 318 318 317 316 315 314 313 313 313 313 312 313 312 313 313 312 312 312 312 312 313 313 313 313 313 313 313 314 315
336 334 332 330 328 325 325 324 322 321 321 319 318 316 315 313 313 311 309 307 304 303 301 301 300 300 300 299 299 299 298 299 299 300 301 303 305 307 307 306 311 315 316 317 318 319 319 319 319 320 320 320 319 319 318 318 317 316 315 314 314 315 313 313 312 312 312 312 311 312 312 311 311 311 311 311 311 311 311 311 312 312 312 312 312
335 334 333 331 329 326 325 324 322 321 320 319 318 316 314 314 312 310 309 306 303 302 302 300 299 299 299 299 299 298 298 298 298 298 299 299 301 302 305 306 305 308 312 315 316 317 317 317 317 318 318 318 317 317 317 316 315 314 314 313 314 314 313 312 312 312 311 311 311 310 310 310 310 310 310 310 310 309 309 309 310 310 310 311 311
335 334 332 332 330 327 324 324 323 321 320 319 318 316 313 311 309 308 307 305 303 302 302 299 298 298 298 298 298 298 298 298 297 297 297 298 298 299 300 303 305 304 305 309 312 313 314 315 315 315 316 316 317 316 315 316 314 313 313 314 313 313 312 312 311 311 311 310 309 309 309 309 309 309 309 309 309 309 309 309 309 309 309 310 310
335 332 331 331 329 327 325 324 324 322 321 318 315 312 309 308 307 306 304 303 300 300 299 298 298 298 298 298 297 297 297 297 296 297 297 297 297 298 298 298 300 302 303 302 304 308 310 311 312 313 313 314 314 314 314 315 315 314 313 313 312 311 311 310 310 310 310 310 309 309 309 308 308 308 308 308 308 309 309 308 309 309 309 310 310
335 332 329 329 328 327 325 323 324 322 319 317 315 311 309 308 306 303 302 300 300 300 299 298 297 296 296 296 296 296 296 296 296 297 296 297 297 297 297 297 297 298 299 299 299 301 305 308 309 310 312 313 313 313 314 314 313 313 313 312 312 310 309 309 309 310 309 309 308 308 308 308 308 308 308 308 308 309 309 309 308 308 309 308 310
332 331 328 328 327 324 323 323 321 319 318 316 313 310 309 307 305 302 299 299 299 299 299 297 296 295 296 295 295 295 295 295 296 296 296 296 296 296 296 296 296 295 296 295 295 296 299 303 305 307 309 311 311 311 313 313 311 311 311 311 311 309 309 308 309 309 308 308 307 307 307 307 307 307 308 308 308 307 308 308 308 308 308 308 309
331 329 327 327 326 322 319 320 319 317 316 315 313 310 307 306 304 303 301 298 299 298 297 296 295 295 295 295 295 295 295 294 294 295 296 295 295 295 295 295 294 296 295 294 293 293 294 296 299 302 304 307 309 310 310 312 311 310 311 311 310 309 308 307 307 307 307 307 307 307 307 307 307 307 307 308 307 307 307 307 308 308 308 307 308
330 328 327 325 323 320 317 318 318 316 315 314 313 310 308 305 301 300 299 298 297 296 295 295 295 294 293 294 294 294 294 294 294 294 294 294 294 294 294 294 294 294 294 294 294 293 293 293 294 296 298 303 307 309 309 308 309 310 309 310 309 309 308 306 306 306 306 306 306 306 306 307 307 307 307 307 306 307 307 307 307 306 307 306 307
326 325 325 322 320 319 316 315 315 315 314 312 310 309 307 306 301 298 298 297 297 296 295 295 294 294 292 292 292 292 293 293 294 294 294 294 293 293 294 293 293 293 293 293 293 293 293 293 292 293 294 298 302 304 306 307 307 308 309 309 308 307 307 306 306 305 305 305 305 306 306 306 306 306 306 306 306 306 306 306 306 306 306 306 307
322 319 318 317 315 314 313 313 313 313 312 310 309 307 305 303 300 297 295 295 296 295 295 294 293 292 291 291 292 292 292 292 292 293 293 293 293 292 292 293 292 293 293 293 293 292 292 292 292 292 292 293 296 298 300 302 304 306 306 307 308 307 307 305 306 305 305 305 306 306 305 306 305 305 306 306 306 305 305 306 306 306 306 306 307
319 318 316 312 313 312 312 312 313 312 310 310 309 307 305 301 298 296 294 293 293 294 295 294 292 290 291 290 290 291 291 291 290 291 291 292 292 292 292 292 292 292 292 292 292 292 291 291 291 291 292 293 293 294 295 296 299 303 304 305 306 306 306 306 305 305 304 304 305 305 305 305 305 305 305 305 305 305 305 305 306 306 306 306 306
316 317 315 314 311 310 311 310 311 311 310 310 307 304 302 299 297 295 295 294 293 295 295 295 293 290 288 288 288 289 290 289 289 289 291 291 292 292 292 292 291 291 291 291 291 291 290 290 291 290 291 291 292 293 294 294 294 297 300 302 304 305 306 306 305 305 304 304 304 304 304 304 305 305 304 304 305 305 305 305 305 305 306 306 306
317 313 314 313 311 310 309 309 311 311 310 308 305 302 300 297 296 294 293 294 294 296 296 300 295 292 292 289 286 286 287 287 288 288 289 290 291 291 291 291 291 291 291 290 290 290 290 290 290 290 290 290 291 291 292 292 291 292 296 297 301 304 304 305 305 304 304 303 304 304 304 304 304 303 304 304 304 304 304 304 305 305 305 306 305
312 312 312 313 314 313 311 310 310 312 310 307 304 301 298 296 296 296 296 292 293 294 299 300 297 293 289 292 290 291 286 287 286 287 289 289 289 289 290 289 290 291 291 290 289 289 289 289 289 289 289 289 290 290 291 291 290 292 292 293 296 300 302 304 304 304 303 303 303 303 303 302 303 303 303 303 304 304 304 304 305 305 305 305 305
310 311 310 309 310 311 310 309 307 309 310 307 304 301 299 298 297 297 296 295 293 295 297 298 297 298 298 293 291 290 293 290 287 285 287 287 288 289 289 289 289 290 290 289 289 289 289 289 288 289 288 288 289 289 290 291 292 293 293 292 294 296 299 302 303 303 303 303 303 302 302 302 302 302 302 303 303 303 304 304 304 305 305 304 304
309 309 309 307 307 308 309 306 306 308 307 304 302 300 299 298 298 299 299 299 297 295 295 297 297 299 298 298 301 297 294 288 289 285 286 288 288 288 288 289 289 289 289 289 289 289 289 288 288 288 288 288 288 289 289 289 290 291 292 294 294 295 296 298 300 301 302 302 301 302 302 301 301 301 301 302 302 303 303 304 303 304 304 304 304
306 306 307 306 305 303 305 306 305 306 306 304 301 299 299 300 300 301 301 300 300 297 296 296 295 295 296 297 297 296 296 289 288 287 283 285 286 287 287 288 288 289 289 289 289 288 288 288 288 287 287 287 287 288 289 289 288 288 289 293 295 294 295 296 296 298 300 300 301 301 301 301 301 301 301 301 302 302 302 302 304 304 304 304 303
302 304 304 302 301 300 301 302 304 304 303 303 302 301 301 302 301 301 303 301 301 300 298 296 293 294 295 295 294 296 296 296 295 291 289 284 283 286 287 287 287 288 288 288 288 288 288 288 288 287 287 287 287 287 288 289 289 289 288 291 294 294 294 295 295 295 296 297 299 300 300 300 300 300 300 301 301 301 302 302 303 303 303 303 303
297 299 301 300 298 298 298 300 302 303 303 304 302 302 301 301 300 301 302 302 302 303 300 296 296 297 293 294 294 295 294 294 295 294 289 287 285 283 283 286 287 287 287 288 288 288 288 288 287 287 286 287 287 286 287 288 289 288 287 289 292 294 294 295 295 294 294 294 295 297 299 299 299 299 301 300 300 301 301 301 302 302 303 303 302
294 296 297 298 297 296 297 298 300 300 300 303 302 301 301 301 301 302 303 302 302 303 301 299 298 298 296 295 293 291 291 290 291 291 291 291 287 284 284 283 282 285 287 286 287 287 288 287 287 287 287 287 286 286 286 288 288 287 285 286 289 292 293 294 294 294 294 293 293 294 296 297 297 298 299 300 300 300 301 301 301 301 302 302 301
294 294 295 295 295 295 296 297 298 299 300 302 302 301 301 301 302 302 302 302 302 303 301 300 299 297 296 295 294 293 292 291 290 290 289 287 287 286 285 284 285 284 285 287 287 287 287 287 286 286 286 286 286 286 285 286 286 285 283 284 286 289 291 292 293 294 294 293 293 293 294 294 294 296 297 298 299 300 301 300 301 300 300 301 301
294 293 292 292 292 293 293 294 295 297 299 302 302 302 302 302 301 301 301 302 302 301 301 299 298 296 296 295 294 295 294 293 293 292 290 289 289 287 285 285 286 286 287 286 288 286 286 286 286 286 286 286 285 285 284 285 286 283 284 284 285 287 289 291 293 293 293 292 292 292 293 293 293 294 295 297 298 299 299 299 299 300 300 300 299
291 291 291 290 290 290 291 292 293 295 298 300 301 301 301 300 300 300 300 300 299 299 298 298 296 294 293 293 293 293 292 292 293 292 292 291 290 286 285 286 283 285 285 285 284 286 286 286 286 286 285 285 285 285 285 285 286 284 282 284 284 285 286 288 291 292 292 291 291 292 292 292 292 293 294 295 296 297 297 297 298 299 300 299 299
291 291 292 290 290 290 291 291 293 295 296 299 299 299 299 299 298 298 299 298 297 298 297 296 294 294 293 291 291 291 290 291 291 292 290 289 288 286 284 284 285 285 285 284 286 284 285 286 286 286 285 285 285 285 285 284 285 283 281 282 284 284 284 286 288 290 291 290 290 291 290 290 291 292 293 294 294 294 295 296 297 297 298 298 298
293 292 291 290 289 290 291 291 292 294 295 296 297 297 297 297 297 297 296 295 295 294 294 293 293 292 292 291 291 291 290 289 290 290 290 290 289 287 284 281 281 283 283 284 284 284 285 286 286 285 285 285 285 285 284 284 283 282 281 284 285 283 283 285 288 290 290 289 290 290 290 290 290 291 292 292 292 292 293 294 295 295 295 296 295
295 293 291 290 289 289 289 291 292 293 294 294 294 294 295 295 294 294 293 292 292 293 292 292 291 291 291 291 290 289 289 289 290 289 289 290 290 289 287 285 282 280 282 281 283 283 286 284 285 285 285 284 284 284 283 281 284 282 282 284 284 284 283 284 287 289 289 288 289 289 289 289 290 290 290 290 290 290 291 291 292 292 291 292 292
295 292 290 290 289 289 288 289 290 292 292 292 292 293 293 293 292 292 291 290 291 291 290 290 290 290 290 290 289 288 287 287 287 288 288 288 289 289 289 286 286 283 281 281 282 282 286 285 283 285 284 285 284 284 283 284 283 281 284 283 283 283 283 284 286 288 287 287 288 288 288 289 289 289 289 289 289 289 290 290 290 290 290 291 291
292 291 289 289 288 287 288 288 289 290 291 291 291 291 291 291 292 291 290 290 290 289 290 290 289 289 289 288 288 287 287 287 287 286 287 287 287 287 286 286 286 284 284 282 283 285 284 285 285 285 284 283 284 283 284 283 282 281 283 283 283 283 282 283 284 285 285 286 287 286 287 289 289 289 289 288 288 288 289 289 289 290 290 290 291
290 289 288 288 287 287 287 288 289 289 290 290 290 290 290 290 290 289 289 290 289 289 288 288 287 287 286 286 287 286 286 286 285 285 285 286 287 286 286 287 286 286 284 284 281 284 284 283 284 286 284 284 284 283 283 283 282 281 282 283 283 282 281 282 283 284 284 285 285 286 287 288 289 289 288 288 288 288 288 288 288 289 289 289 289
289 289 289 288 287 286 286 287 288 289 288 289 289 289 289 289 288 287 287 289 288 287 286 287 286 287 286 285 285 285 284 285 284 285 285 286 285 285 285 286 286 285 285 283 281 281 284 284 285 284 284 283 284 282 283 283 282 279 282 282 282 281 282 283 283 283 283 284 284 285 286 287 288 288 288 287 287 287 287 287 288 288 288 288 289
289 287 287 287 287 286 286 287 288 288 288 287 287 288 288 287 287 286 286 287 286 286 286 284 285 285 285 284 284 283 284 284 283 284 285 284 283 284 284 284 284 284 283 282 281 281 283 284 284 284 284 283 281 283 282 282 282 282 281 282 282 282 282 282 283 283 283 283 283 284 285 286 287 288 287 286 285 285 286 286 287 287 287 287 288
287 286 286 287 287 286 286 287 287 288 287 287 287 287 286 286 286 286 286 286 286 285 285 284 284 284 284 283 282 282 283 282 282 282 282 282 282 282 282 282 283 283 284 282 281 281 281 283 281 283 282 283 280 284 281 281 281 282 281 281 282 282 281 282 282 283 283 283 283 283 285 286 287 287 286 285 285 285 285 286 286 286 286 286 286
287 287 286 287 287 286 286 287 287 287 287 286 286 286 286 286 285 285 286 286 285 285 284 284 284 283 283 283 282 281 280 280 280 281 281 281 281 281 281 282 282 283 283 283 281 280 281 281 282 280 281 281 280 281 282 281 281 281 280 280 281 281 281 281 282 282 283 283 283 284 284 286 286 286 285 284 284 284 284 285 285 285 285 285 285
286 286 286 286 286 285 286 286 286 286 285 285 285 286 286 286 285 284 285 285 285 285 284 284 283 283 283 282 280 279 279 279 279 279 280 280 280 281 281 282 282 282 282 282 282 281 280 279 281 280 281 280 280 281 280 280 280 280 280 280 281 280 281 281 281 281 282 283 283 283 284 285 285 285 284 283 283 284 284 284 284 284 284 284 283
285 285 285 285 284 284 285 286 285 285 285 285 285 285 285 285 285 284 284 284 284 284 284 283 283 283 282 281 279 278 279 278 278 278 279 279 280 280 281 281 281 281 281 281 281 281 280 279 280 281 280 280 280 280 280 279 279 280 280 279 279 280 280 281 282 282 282 282 283 283 283 283 284 284 283 283 283 283 283 283 283 283 283 283 282
284 284 284 284 284 284 285 286 285 285 285 284 284 285 285 285 284 284 284 284 284 284 284 283 282 281 280 280 279 278 278 279 279 279 280 279 279 280 280 280 281 281 280 280 280 280 279 279 279 279 280 279 279 279 280 279 278 277 278 280 280 280 280 280 281 281 281 280 280 281 281 281 282 282 282 282 282 282 282 282 282 282 282 281 281
283 282 283 283 284 284 284 285 284 284 284 284 284 283 283 283 283 283 283 283 283 282 281 280 280 280 280 280 279 278 278 279 280 280 280 280 280 279 280 280 280 280 280 280 280 279 279 279 279 279 279 280 279 277 279 280 278 278 277 277 277 280 280 280 279 280 281 280 281 282 281 281 280 280 281 281 281 281 282 281 281 281 280 280 280
283 282 282 282 282 283 283 283 284 284 283 283 282 282 283 283 283 282 281 280 279 279 280 280 280 280 279 278 278 279 279 279 280 280 280 279 280 279 280 280 280 279 279 280 279 279 278 278 278 278 279 278 278 279 279 278 276 277 278 277 276 278 279 280 280 279 280 280 280 280 281 280 280 280 281 281 280 280 280 280 279 279 279 280 280
284 283 282 282 282 282 282 282 282 282 281 282 282 282 281 280 280 280 280 280 280 280 280 279 279 278 278 278 278 279 279 280 281 281 280 280 280 280 280 280 279 279 279 279 279 278 278 278 278 279 278 277 277 277 277 277 277 277 279 279 278 279 279 278 280 281 280 279 279 279 279 279 277 278 278 278 278 278 278 278 278 278 278 279 281
283 283 283 283 282 281 281 281 282 282 282 282 281 283 282 281 281 282 281 281 281 280 279 278 277 277 278 278 278 280 280 280 280 280 281 281 281 280 280 281 279 279 278 278 278 278 278 278 278 278 276 276 277 278 278 278 279 279 278 278 277 278 279 278 279 280 281 280 278 277 278 279 278 277 277 277 278 278 277 277 277 277 277 279 280
283 282 282 282 282 281 281 281 281 280 280 280 283 284 285 284 282 282 282 281 280 279 278 277 276 277 277 277 277 279 280 280 280 281 282 282 282 282 281 281 281 280 278 277 277 278 277 277 278 277 277 277 278 279 278 278 279 279 278 278 278 278 277 276 275 279 282 278 276 275 276 279 278 276 276 276 277 277 277 277 277 277 278 279 280
283 283 282 282 282 281 281 281 280 280 280 282 284 285 285 285 284 283 282 281 280 279 278 278 278 277 277 277 277 277 278 279 280 280 281 282 283 283 283 282 282 281 281 279 278 277 277 276 276 276 277 276 277 278 278 279 278 279 279 278 277 277 277 276 277 276 280 279 276 275 275 279 278 276 275 276 277 277 276 277 277 278 278 279 280
283 282 282 282 281 281 281 280 280 280 280 283 285 286 286 285 284 282 282 281 280 279 278 278 277 278 278 277 277 277 277 279 280 280 280 280 281 282 283 283 283 283 283 283 282 279 278 277 276 276 277 277 277 278 279 279 280 278 278 278 278 278 278 277 277 278 279 279 276 275 274 277 278 276 275 276 276 276 275 276 277 277 278 278 279
282 282 282 282 282 281 281 280 280 280 280 283 286 286 286 286 285 283 282 281 280 280 278 278 278 278 278 278 278 277 278 278 279 279 279 280 280 280 281 281 282 282 283 283 282 282 281 278 277 276 277 278 277 279 281 281 278 277 277 277 279 278 277 277 279 279 279 278 275 274 272 274 277 275 274 275 277 276 275 276 276 277 278 278 278
282 281 281 281 281 282 281 281 280 280 279 284 286 286 286 286 285 282 281 280 280 279 279 278 278 278 278 278 278 279 279 279 279 279 279 279 279 279 279 279 280 281 282 282 282 282 281 281 279 278 279 280 280 280 281 281 280 279 279 278 278 278 278 279 278 278 278 278 275 274 270 274 277 274 274 275 276 275 275 275 276 277 277 277 278
283 283 282 282 281 281 281 281 280 278 279 284 286 286 287 286 285 281 280 280 279 279 279 279 278 278 278 278 278 279 279 279 280 281 281 280 279 278 277 278 277 278 279 281 283 284 283 282 282 281 281 281 282 281 281 281 280 280 279 279 278 277 276 274 273 275 275 277 277 273 271 271 275 273 273 274 274 273 274 274 275 276 276 276 277
282 281 281 281 282 281 280 279 279 279 280 284 286 286 286 287 285 282 281 280 280 279 279 279 279 278 278 278 278 278 279 279 280 282 282 282 279 277 277 276 276 277 277 278 280 282 283 284 285 285 285 285 285 285 285 284 283 281 279 276 275 276 273 272 273 274 274 277 276 274 271 269 273 273 271 272 273 272 273 273 274 275 275 275 275
282 282 280 280 280 280 279 279 279 278 279 283 285 286 286 287 286 284 283 282 281 280 279 279 279 279 279 280 280 278 278 278 280 281 282 281 279 279 278 276 276 276 276 277 277 278 280 281 282 282 283 284 284 285 285 286 286 285 281 276 276 276 273 273 271 273 274 276 273 274 269 269 271 271 270 271 272 272 273 273 274 273 273 274 274
281 281 280 280 279 279 279 279 280 279 279 282 285 285 286 287 286 285 284 283 282 281 281 280 280 280 280 280 281 280 279 279 280 281 282 281 279 279 279 278 276 276 277 279 278 277 277 277 277 278 278 279 279 279 280 281 282 282 281 280 279 276 272 272 272 272 271 273 274 274 269 269 270 271 271 268 268 271 273 272 273 272 272 272 272
Wind_Speed
9 7 6 8 7 7 7 7 8 7 7 7 7 8 7 7 8 8 7 7 7 7 7 7 7 7 7 7 7 7 7 6 7 7 7 8 9 13 18 16 16 17 17 17 17 18 19 20 19 18 19 20 20 21 21 21 22 22 22 22 22 21 21 21 21 22 22 22 22 23 22 22 24 24 24 24 24 24 25 25 25 25 25 25 25
10 9 8 7 7 7 7 7 8 8 7 8 7 8 8 7 7 8 7 7 7 7 7 8 8 7 7 7 7 6 6 6 6 6 7 7 8 10 17 17 16 18 18 17 18 17 17 17 17 18 18 18 19 20 20 21 21 21 21 21 21 21 20 21 21 21 21 21 21 21 22 22 22 22 22 23 24 25 25 24 24 25 25 25 25
9 9 8 8 7 7 7 7 7 7 7 7 6 7 7 7 7 8 7 7 7 7 8 8 7 7 7 7 6 6 6 6 6 6 7 6 7 8 11 17 18 18 19 19 18 18 18 18 18 17 17 18 18 19 19 19 20 19 20 20 20 19 20 19 20 20 20 20 21 21 22 22 22 22 22 23 23 23 23 24 24 25 25 25 25
10 10 10 9 9 8 8 8 7 6 6 7 7 7 7 7 7 7 8 7 7 7 7 8 8 7 7 7 6 6 6 5 6 6 6 5 6 6 6 9 16 19 19 20 19 20 20 19 17 17 17 16 16 17 18 17 18 18 19 19 18 19 18 19 19 20 20 20 21 21 21 21 21 21 22 22 22 22 23 23 24 24 25 25 25
10 10 9 10 10 9 7 7 7 7 7 8 9 7 7 7 7 7 8 7 7 7 7 8 8 7 6 7 6 6 5 5 5 5 5 5 5 5 5 6 8 15 20 20 20 19 19 19 19 18 17 16 16 16 16 16 17 18 18 18 18 19 19 19 19 20 20 20 20 20 20 20 20 21 21 21 22 22 22 23 23 24 24 25 26
9 10 8 6 8 9 9 7 7 9 8 8 9 8 8 8 8 7 7 7 7 7 8 9 7 6 7 6 6 5 5 5 5 4 4 5 4 5 5 5 6 7 9 17 20 19 19 18 18 17 16 16 15 15 15 16 16 17 17 18 18 18 19 19 19 19 20 20 20 20 20 20 20 21 21 22 22 22 23 23 23 24 24 25 25
11 10 8 8 8 8 8 8 7 9 9 8 9 8 7 8 8 9 7 7 7 6 7 9 8 8 7 6 6 6 5 5 4 4 4 4 5 5 6 6 6 6 6 7 12 17 18 18 18 17 16 16 16 16 16 16 16 16 17 17 17 18 18 19 19 19 19 19 19 19 19 19 20 20 21 21 22 22 22 23 24 25 24 25 25
10 9 9 9 8 8 7 8 8 8 7 6 7 8 7 6 5 8 9 8 9 7 6 8 8 8 6 6 6 5 5 4 4 4 4 4 5 6 6 6 6 6 6 7 7 10 16 17 17 17 17 16 17 16 16 16 16 15 16 16 17 17 18 18 18 18 18 18 18 18 19 19 19 20 21 21 22 22 23 24 24 24 25 26 26
10 10 9 9 7 7 8 9 9 8 7 7 6 6 8 8 5 3 6 9 9 9 8 7 8 8 7 7 6 5 5 4 4 4 4 5 5 6 6 6 6 6 5 6 6 6 10 14 16 17 16 16 17 17 17 16 15 15 15 15 16 16 17 17 17 17 17 17 18 18 19 19 20 20 21 21 22 23 23 23 24 24 25 25 25
10 10 9 9 8 8 7 9 10 10 7 7 6 7 6 8 8 4 5 8 9 9 9 7 7 7 7 7 6 5 4 4 3 3 4 5 4 5 5 4 5 5 5 5 5 5 5 7 10 13 16 16 16 17 17 17 16 15 14 14 15 15 16 16 16 17 17 17 17 18 18 19 19 20 21 21 22 22 23 23 23 24 25 26 26
9 7 8 8 9 10 11 9 7 10 9 9 8 7 6 5 10 7 3 5 8 9 10 8 8 8 8 8 6 6 4 3 2 3 3 4 4 4 4 5 5 5 5 4 4 5 5 5 5 6 8 16 16 17 17 17 16 15 14 13 14 15 15 16 16 16 16 17 17 17 18 18 19 20 20 21 21 22 22 23 24 24 25 26 26
10 8 7 7 8 7 8 9 10 8 11 14 9 9 11 9 8 11 7 6 6 8 10 10 9 10 9 7 6 5 4 3 3 3 3 3 3 3 4 4 5 5 4 4 4 5 5 5 5 5 5 9 13 14 15 16 16 16 14 14 14 14 15 15 16 15 16 16 17 17 18 18 19 19 19 20 21 21 22 22 23 23 24 25 25
9 8 8 6 6 7 8 7 9 10 8 11 13 11 8 9 9 7 11 11 7 7 9 11 12 9 8 8 6 5 4 3 3 3 2 2 3 3 3 4 4 4 4 4 5 5 5 6 5 5 4 4 5 9 11 14 16 16 16 14 13 13 14 14 15 15 15 16 16 16 17 17 18 18 19 19 20 20 21 22 22 23 23 24 25
7 8 8 10 8 6 7 8 7 7 8 9 12 11 11 11 9 7 4 10 10 10 10 10 8 9 10 7 6 4 3 3 3 2 2 2 2 3 3 4 4 4 4 5 5 5 5 5 5 5 5 4 4 4 5 7 10 16 16 16 14 13 13 13 14 14 15 15 15 15 16 17 17 18 19 19 20 20 21 21 22 23 24 25 24
10 8 8 9 9 10 9 9 10 10 9 9 11 11 11 12 10 11 9 3 7 8 11 7 8 9 8 9 7 6 4 3 3 2 2 2 2 3 4 4 4 3 3 4 5 5 5 4 5 4 4 4 3 4 4 5 7 11 16 16 15 14 13 13 13 14 14 14 15 15 15 16 17 18 18 19 19 20 21 22 23 23 24 24 24
7 7 6 7 10 10 10 10 10 10 11 12 11 11 11 11 9 9 13 10 7 8 7 2 8 12 9 6 8 6 5 7 6 3 2 3 3 3 3 3 3 3 3 4 4 4 4 4 4 3 4 4 3 3 3 4 4 5 9 14 14 14 14 13 13 14 14 14 14 15 15 16 17 17 18 18 19 20 21 22 22 23 24 25 25
7 9 9 8 6 7 10 10 8 9 10 11 12 12 12 12 11 10 12 13 11 9 6 4 8 7 4 7 4 4 5 7 8 4 4 3 2 2 3 3 3 2 3 3 3 4 3 3 3 3 3 3 3 3 3 4 4 5 6 10 12 13 14 13 13 13 14 14 14 15 15 15 16 17 17 18 19 20 21 22 23 24 24 25 25
6 7 8 8 9 7 7 10 11 11 8 8 8 10 11 11 12 12 12 11 13 11 9 6 7 5 5 4 2 1 6 9 8 4 4 1 3 2 2 2 2 3 3 3 3 3 3 2 3 3 3 3 3 3 3 4 5 5 6 8 12 13 12 13 13 13 13 14 14 15 15 15 16 16 17 18 18 19 21 22 23 24 25 25 26
6 6 8 9 8 7 9 10 10 8 10 10 9 11 11 11 11 9 10 9 10 11 12 9 5 5 4 4 3 3 4 12 7 7 5 4 4 4 4 3 2 2 3 3 3 3 3 2 3 3 3 2 2 2 3 3 4 4 8 12 12 11 11 11 11 12 13 14 15 14 15 15 15 16 17 17 18 19 21 22 23 23 24 25 27
4 6 7 9 8 5 7 9 10 9 9 10 12 9 10 8 10 9 9 9 11 11 11 9 12 10 6 5 3 1 6 2 7 6 5 8 7 3 2 3 3 3 3 3 4 3 3 2 2 2 2 2 2 2 2 2 3 4 6 12 12 11 11 10 10 11 12 14 14 15 15 15 16 16 17 17 18 20 20 21 22 23 25 26 27
2 4 6 8 8 8 6 8 9 10 8 7 9 9 13 12 9 8 9 9 10 8 9 11 10 8 7 5 3 3 3 1 3 1 3 6 6 8 7 4 3 4 4 3 3 2 3 2 2 1 1 1 2 3 3 3 3 4 6 12 12 11 11 10 9 10 11 12 13 14 15 15 15 16 17 18 18 19 20 21 22 23 24 25 25
3 3 5 6 8 9 7 8 9 9 8 8 8 9 9 11 11 11 9 9 8 8 10 8 9 5 8 6 6 5 3 2 4 4 2 3 5 9 9 9 8 6 5 5 4 3 3 3 2 1 1 1 2 2 2 3 4 4 6 11 11 11 10 10 9 10 10 11 12 13 13 14 15 16 16 17 18 18 20 21 22 23 24 25 25
5 5 6 5 5 7 9 7 5 7 9 9 9 10 9 10 9 10 10 10 9 7 7 5 8 6 7 6 7 8 7 7 7 7 5 4 5 6 7 8 7 6 7 6 5 4 3 3 3 2 2 1 1 1 2 2 2 5 8 8 10 10 10 10 9 9 10 10 11 12 12 13 14 15 16 17 18 19 20 21 22 23 24 25 25
5 5 5 5 4 6 5 5 6 7 8 8 9 9 10 9 8 9 9 8 5 6 7 6 6 5 6 5 5 5 3 2 4 6 6 4 5 6 7 7 3 4 5 5 4 4 4 4 4 3 2 2 1 0 1 1 1 3 7 6 9 10 10 10 10 10 10 10 11 11 12 13 14 15 16 17 18 19 20 21 21 22 24 24 25
5 6 6 8 6 6 7 7 6 6 7 7 8 9 9 8 9 9 8 9 7 7 7 6 7 5 6 2 0 1 1 2 2 4 3 3 4 6 4 6 6 5 5 5 5 5 5 5 5 4 3 3 2 1 1 0 1 3 7 6 7 9 10 10 10 10 10 10 10 11 12 13 13 14 16 17 18 19 20 21 21 22 23 24 24
9 9 9 9 7 7 7 7 6 7 7 8 7 7 7 8 8 8 7 6 4 5 3 4 4 2 2 3 1 1 1 1 1 3 4 5 5 6 7 4 1 4 4 4 4 4 6 6 6 5 4 4 3 2 1 0 2 1 6 6 6 6 9 10 10 10 10 10 11 11 12 12 13 14 15 16 17 18 19 20 21 22 23 24 24
7 7 8 8 6 6 6 6 6 6 7 6 5 6 7 6 6 5 4 3 4 4 3 5 4 4 3 2 3 2 1 1 1 2 2 2 3 6 8 7 4 3 4 5 5 8 5 5 6 6 5 4 4 3 2 1 2 2 6 5 4 6 7 9 11 11 10 10 11 11 11 12 13 14 15 15 16 17 18 19 21 22 23 23 24
5 6 8 7 8 7 5 5 5 6 6 6 7 6 6 6 5 5 5 3 4 5 4 5 5 5 4 3 3 3 2 2 2 2 2 2 2 4 5 6 6 4 6 6 7 8 9 6 5 6 6 5 4 4 3 2 3 2 7 4 4 5 6 9 11 11 10 10 11 11 11 12 13 14 14 15 15 16 17 19 20 21 21 23 23
5 5 6 7 7 7 7 6 6 6 6 6 6 6 6 6 6 6 6 5 5 6 5 5 5 5 4 3 3 3 3 2 3 3 3 2 2 1 1 4 4 5 4 7 8 7 7 9 5 6 7 5 5 4 4 4 2 1 3 3 4 4 6 11 13 12 11 11 11 11 12 12 13 13 14 14 15 15 17 18 19 20 21 22 23
5 5 5 6 6 8 6 7 6 7 7 6 6 6 7 5 6 5 5 6 6 5 4 5 5 4 5 4 3 4 3 3 3 3 3 3 2 1 1 1 2 5 5 6 4 4 4 6 6 4 6 6 5 4 4 4 5 3 3 4 3 4 8 13 13 12 11 11 11 12 13 13 13 13 14 14 14 16 17 18 19 20 21 22 23
6 7 8 7 5 6 8 7 7 7 7 7 7 7 6 6 6 6 6 6 6 6 5 5 5 5 5 5 4 4 3 4 4 3 2 2 1 1 0 1 2 3 4 4 6 2 4 4 5 3 6 7 5 4 4 4 5 4 4 3 4 5 10 10 12 11 11 11 12 12 13 13 13 14 14 14 14 16 17 18 19 20 21 21 22
6 8 8 9 8 9 8 7 8 8 8 7 7 7 7 6 7 7 7 7 7 7 6 5 4 4 6 5 4 4 4 4 3 3 2 1 1 1 1 2 2 2 3 4 6 5 4 3 3 4 5 5 5 5 5 4 4 8 4 4 4 6 6 6 9 11 11 11 11 12 13 14 14 14 14 14 14 16 18 18 19 19 20 20 21
7 8 8 9 7 9 10 8 10 9 9 8 7 8 7 8 7 7 8 7 8 6 6 6 5 5 5 5 5 4 4 4 3 3 2 2 1 1 1 2 3 2 3 4 6 6 2 3 2 3 4 4 5 6 5 5 4 4 4 5 5 4 5 6 6 10 11 11 10 12 14 15 15 14 14 13 14 16 17 18 18 18 19 19 20
6 7 8 8 7 9 8 9 9 9 9 8 9 8 8 8 7 5 7 8 8 7 7 7 6 4 5 5 5 4 3 3 3 3 2 2 2 2 2 2 3 3 3 4 6 5 7 3 3 3 4 5 4 5 5 5 5 4 5 5 4 5 5 6 6 7 10 10 11 12 14 15 15 15 14 12 14 16 17 17 18 18 18 19 20
6 7 7 10 8 8 8 9 9 9 9 9 8 8 8 9 9 7 6 7 8 8 7 7 6 5 6 5 5 4 3 3 3 2 2 2 2 3 3 2 3 3 3 4 4 6 7 6 1 3 4 4 5 5 4 4 4 5 6 6 5 5 5 6 7 7 10 11 12 13 14 16 16 16 14 13 14 16 17 17 17 17 17 18 19
8 7 7 7 7 7 7 9 9 9 9 8 7 7 8 8 8 8 7 7 7 7 7 7 7 7 7 6 5 5 4 4 3 2 2 3 3 3 4 3 4 4 3 3 5 5 6 6 5 4 4 4 4 4 4 4 6 6 6 6 6 7 7 7 8 8 9 12 13 13 15 16 17 16 15 14 14 16 17 17 17 17 17 18 19
8 8 9 7 6 8 7 9 9 9 9 9 9 8 6 6 7 8 8 7 7 7 7 7 8 7 6 5 6 5 5 4 3 3 4 5 4 4 4 4 3 3 2 3 4 4 5 7 7 4 3 4 4 4 5 5 6 6 7 7 7 8 8 8 7 8 10 14 16 16 16 16 18 17 16 14 14 17 17 17 17 17 17 17 18
7 7 8 8 9 9 9 9 9 9 9 9 9 8 8 7 7 7 7 7 7 7 7 7 6 5 6 6 6 6 5 5 4 4 4 5 4 4 5 4 3 3 4 4 4 5 6 7 7 7 5 5 5 5 5 5 5 7 7 7 7 8 8 8 8 6 6 6 6 6 10 13 16 18 15 14 15 17 17 17 17 17 17 17 18
7 8 7 7 6 7 9 10 10 10 9 9 9 8 8 8 8 8 8 7 7 5 5 5 5 5 5 5 6 5 5 5 4 5 4 4 4 5 5 4 4 4 5 5 5 5 6 7 8 8 7 6 5 7 4 4 5 6 7 8 8 7 8 8 8 7 6 7 10 14 12 10 11 10 13 16 16 17 18 16 16 16 17 17 18
8 8 8 8 6 6 8 9 9 8 8 8 8 8 8 8 8 7 7 7 7 6 6 6 6 5 5 4 4 5 5 4 4 4 5 5 3 4 4 4 5 5 6 6 5 5 6 7 8 7 6 5 5 6 5 4 6 8 8 7 9 8 6 7 8 8 7 7 8 7 8 11 13 16 18 17 17 17 18 15 16 16 17 18 18
6 7 7 7 7 5 4 5 8 7 8 8 8 9 8 7 6 8 8 8 8 8 7 6 5 5 5 4 4 5 5 4 6 4 4 4 4 3 4 5 6 6 5 5 4 4 5 6 8 7 6 6 7 6 7 7 8 9 5 6 8 9 8 9 9 8 8 8 7 7 7 7 8 8 8 8 8 10 12 14 13 16 16 16 19
6 6 7 7 7 6 6 6 7 7 7 6 10 13 11 11 9 8 8 8 8 8 7 6 5 5 5 4 4 6 6 7 9 10 11 10 10 8 6 6 5 5 5 5 6 5 5 7 8 6 6 8 8 8 9 8 7 6 7 8 9 9 8 9 9 8 8 7 7 8 8 6 7 8 8 9 7 7 7 7 7 9 13 18 20
9 9 9 8 7 6 8 8 8 8 9 9 15 17 17 15 11 9 9 8 7 7 5 6 6 6 5 4 3 4 6 7 9 12 13 13 13 14 15 14 10 7 5 6 7 6 6 8 6 5 7 10 11 9 8 8 7 8 8 7 8 7 8 8 9 6 4 7 7 7 8 7 7 9 8 8 8 8 7 7 11 14 16 18 20
7 7 8 7 7 9 9 8 11 9 8 10 18 18 17 16 11 8 7 6 6 6 6 6 5 5 5 4 4 3 5 7 7 7 11 14 14 15 16 17 17 17 15 11 7 6 8 8 7 7 8 10 11 8 8 8 8 7 8 8 9 9 9 9 10 9 3 6 5 7 10 6 6 7 8 8 8 7 8 10 13 16 16 18 19
5 5 7 6 4 4 5 5 4 4 2 9 15 16 15 15 13 8 5 6 6 5 6 6 5 5 4 4 4 4 5 10 8 7 7 7 11 16 17 17 18 19 19 21 19 13 7 7 7 9 12 11 11 11 10 9 7 8 7 8 9 9 9 10 11 9 7 4 3 7 11 8 3 8 9 8 7 7 8 10 13 15 16 17 17
7 7 7 8 7 7 7 7 6 4 4 9 13 14 13 13 13 9 5 6 5 5 7 6 5 5 6 5 4 5 6 7 8 8 7 7 7 7 9 11 11 14 19 21 21 23 19 12 10 12 15 11 12 12 8 6 8 9 8 9 9 9 10 12 11 11 8 2 4 6 10 11 5 6 8 8 8 8 8 10 12 15 17 17 15
9 9 9 9 8 7 7 7 7 6 6 12 15 15 15 15 15 9 5 5 4 4 5 5 6 6 5 4 5 7 6 6 7 7 7 7 5 5 6 8 11 11 11 12 14 14 13 13 14 15 15 12 13 13 10 8 9 9 9 10 10 11 11 10 11 10 9 6 5 6 10 9 5 8 10 8 7 7 8 10 14 16 16 15 13
5 6 6 6 7 7 6 6 6 9 7 15 15 16 17 17 14 5 4 4 4 3 3 5 5 5 5 6 7 8 7 6 7 11 10 6 6 9 10 9 8 10 11 13 14 13 12 12 13 15 13 13 12 11 9 8 7 6 7 8 9 10 7 10 14 9 10 7 8 8 8 10 7 8 10 8 7 9 8 8 12 15 13 12 9
5 6 5 5 4 5 6 5 4 3 3 9 12 12 12 13 9 5 5 4 3 4 4 5 4 5 6 7 8 7 6 7 7 11 12 11 8 10 11 12 10 8 11 8 13 20 22 23 23 23 23 23 22 22 22 22 16 11 9 11 12 10 10 12 13 13 12 10 8 9 6 9 6 6 8 8 8 10 9 9 8 8 9 8 9
6 6 6 7 6 6 6 7 7 7 4 6 11 12 13 14 8 5 5 4 4 3 3 3 3 5 7 11 9 6 7 8 7 10 11 10 9 10 10 12 15 11 10 5 6 10 18 22 24 26 25 25 25 26 26 27 27 20 11 11 8 8 11 11 12 11 11 9 6 7 4 8 5 5 7 8 9 8 7 5 4 3 6 8 11
6 5 6 6 6 4 5 6 7 8 7 9 14 14 14 14 9 3 4 3 4 4 3 3 5 6 7 9 12 11 9 9 11 13 15 13 9 11 9 9 11 14 11 4 8 6 5 7 10 12 13 16 15 14 15 20 20 18 14 14 8 8 9 10 10 8 9 11 7 11 6 5 4 5 4 6 8 7 4 4 3 3 5 6 7
Wind_Direction
168 170 162 164 151 151 147 145 141 140 143 140 138 133 126 126 124 119 113 112 109 102 95 89 86 79 78 75 70 67 67 66 63 60 63 65 58 33 22 39 63 68 60 67 72 73 75 74 72 69 71 69 65 64 64 62 58 57 55 53 50 49 47 45 43 42 41 39 37 36 35 33 31 29 27 26 24 22 21 19 17 16 16 13 11
176 173 172 157 152 151 148 147 149 147 149 147 146 138 135 134 127 120 117 114 106 102 102 93 86 81 79 81 76 75 73 69 64 69 71 69 65 54 34 28 59 70 68 67 68 68 69 69 71 71 67 66 67 65 62 60 60 58 57 53 51 49 47 45 44 43 41 40 37 35 33 32 30 29 25 24 23 21 19 17 15 14 13 12 9
182 170 176 159 158 159 156 154 150 150 151 143 139 139 135 132 132 125 121 114 109 107 106 101 94 89 84 83 82 81 75 72 72 75 79 74 79 73 53 39 37 55 72 71 72 68 64 65 65 64 65 65 64 63 63 62 61 59 57 55 52 50 47 46 44 43 42 40 38 35 33 31 29 26 25 23 22 20 19 17 15 14 12 10 8
184 182 171 169 162 163 164 161 152 146 148 142 136 134 133 125 117 112 113 113 115 111 107 105 98 93 89 86 85 84 79 78 78 73 72 80 84 85 81 67 48 44 50 62 64 62 62 62 64 63 62 62 63 65 66 64 61 59 58 55 51 50 49 47 45 43 41 40 37 35 32 30 28 26 24 22 20 19 17 15 14 12 11 9 7
188 186 183 174 166 163 163 164 152 146 143 132 124 123 124 121 113 117 116 117 113 110 107 102 102 99 94 90 88 81 79 82 78 74 73 76 80 82 84 76 73 55 46 46 55 62 64 64 61 60 63 65 64 64 64 63 63 60 57 54 51 49 47 47 45 42 40 38 36 34 31 29 27 25 23 21 19 17 15 13 12 10 9 8 6
179 176 175 183 163 160 165 167 154 146 139 137 135 137 133 131 128 117 116 122 122 122 120 112 108 105 96 90 85 82 84 79 74 73 74 74 75 73 71 71 68 68 61 47 42 51 59 62 63 62 62 62 63 64 65 63 61 59 56 53 50 49 46 44 43 42 40 37 36 33 31 27 26 24 22 20 18 16 15 14 12 11 9 8 6
188 174 169 171 170 161 164 173 157 145 144 148 141 141 142 139 138 127 124 123 121 124 122 116 114 106 100 96 91 90 86 85 80 79 77 73 71 66 62 63 62 65 69 72 50 40 51 56 59 60 59 60 60 61 62 62 60 58 57 54 50 49 46 44 43 42 40 38 35 33 29 28 26 24 22 20 19 17 15 13 12 11 9 7 7
180 170 167 169 171 167 157 162 151 138 133 130 130 142 140 127 120 135 135 131 128 128 120 113 108 103 99 97 96 93 92 86 78 74 66 73 68 64 65 62 62 60 68 74 72 50 47 52 53 54 56 56 57 56 57 58 60 59 56 57 53 50 48 45 43 42 39 37 35 31 30 28 26 24 23 20 18 16 15 13 12 10 8 7 6
172 170 164 174 167 160 155 154 151 138 139 137 137 142 144 135 131 112 140 133 131 129 120 111 107 101 97 93 88 91 88 81 82 80 73 78 78 78 78 74 68 66 70 74 77 78 54 52 52 45 46 52 54 54 54 54 57 59 58 56 53 51 50 47 43 41 39 38 35 32 30 27 25 23 21 19 16 15 13 12 11 9 5 4 4
173 171 168 163 161 151 144 152 154 146 135 139 130 136 144 141 133 131 133 132 135 135 122 113 109 103 94 87 84 80 79 83 85 93 93 92 91 88 87 85 73 71 72 71 73 71 70 59 58 53 41 44 51 52 51 51 50 52 54 54 55 53 50 48 44 43 40 37 35 32 29 26 23 21 19 17 14 12 11 9 9 5 3 2 1
166 161 161 158 159 157 152 151 149 148 138 136 137 137 134 123 135 121 90 124 136 130 124 119 109 101 94 85 80 76 78 78 95 93 97 93 93 93 91 88 86 78 78 77 75 67 59 56 53 56 47 39 45 46 45 45 48 48 49 53 53 53 51 49 45 42 39 35 32 29 26 23 21 19 17 14 12 10 9 7 6 3 1 359 357
166 149 136 154 151 145 146 151 151 150 150 149 144 152 154 146 146 142 121 94 108 124 125 121 107 97 94 86 78 75 77 86 91 97 105 103 108 113 100 101 96 87 81 82 73 64 60 54 52 52 57 46 41 41 43 39 39 46 45 46 50 50 50 47 45 40 35 32 29 26 23 20 19 17 14 13 10 9 7 5 3 1 359 356 354
158 148 143 130 134 140 139 149 151 157 163 157 157 153 149 146 141 149 141 134 131 139 138 130 119 105 98 96 89 80 82 85 94 89 94 111 119 117 112 106 99 91 80 76 66 58 57 50 48 46 42 39 48 41 39 38 32 36 41 44 44 45 45 45 42 37 33 29 26 24 21 19 17 15 13 10 7 5 3 2 360 358 356 353 352
159 150 152 152 148 148 153 150 159 165 163 146 147 143 145 151 147 126 173 145 151 161 159 139 133 144 141 133 116 111 99 104 98 95 105 110 112 102 105 99 94 93 93 82 69 63 57 54 48 44 39 39 33 35 31 30 32 26 31 32 38 39 39 38 38 34 30 27 23 21 20 17 15 13 10 7 3 1 1 359 358 356 353 351 348
175 159 154 161 163 158 164 160 167 163 154 150 151 151 157 160 166 150 149 143 148 170 169 177 146 143 134 130 156 157 164 152 134 122 118 102 102 93 88 93 88 93 96 93 86 75 62 56 52 45 38 33 33 32 50 49 19 23 27 24 24 32 31 32 31 29 25 24 20 18 17 16 12 10 7 2 359 358 357 355 355 352 349 348 347
169 158 158 164 170 170 162 166 164 165 161 156 162 163 161 167 172 165 145 142 172 183 191 206 161 149 159 199 171 184 166 198 165 133 117 91 95 110 104 105 108 104 109 100 94 85 79 70 60 54 42 34 28 28 32 27 2 31 39 22 17 18 21 26 23 24 20 19 17 14 14 13 9 6 3 358 355 355 353 353 351 348 347 347 346
182 169 163 169 173 172 165 162 157 165 165 161 165 168 171 175 173 165 165 156 169 177 186 200 187 193 157 135 145 217 227 144 145 140 159 149 120 115 106 125 133 124 111 104 102 101 97 88 78 63 47 36 26 26 24 15 16 18 31 24 16 14 16 16 17 16 16 14 13 11 10 9 5 3 358 354 352 350 350 350 349 346 345 345 345
189 183 165 161 167 169 167 157 170 170 171 163 160 160 170 176 181 172 173 176 162 168 179 197 218 222 272 321 334 283 157 153 166 166 158 104 131 137 138 136 131 134 126 130 132 122 111 104 89 73 51 35 29 21 35 31 17 25 16 11 14 15 15 13 11 10 11 10 10 7 4 3 2 358 354 350 349 348 348 349 347 345 345 345 345
190 190 167 160 161 159 168 172 171 172 172 175 170 166 173 179 178 187 178 169 163 167 179 179 196 249 247 254 300 301 149 147 195 122 170 167 190 173 167 161 150 141 144 150 143 144 134 128 105 82 60 38 23 26 36 39 24 22 17 7 12 10 12 14 10 6 6 5 6 3 359 359 357 355 350 347 347 347 347 346 345 344 343 345 346
195 189 169 159 151 148 160 168 179 180 165 180 178 178 175 180 179 187 177 176 173 173 175 173 183 198 191 218 237 251 166 316 164 174 154 159 175 165 157 170 182 177 166 164 163 162 150 139 120 97 78 50 26 31 26 21 18 15 16 1 2 5 7 10 8 5 4 2 2 358 356 355 354 350 346 345 346 344 343 343 343 343 344 345 345
212 182 177 168 152 148 157 177 183 185 188 175 173 178 178 174 178 189 186 180 183 180 175 182 192 191 162 196 182 170 161 35 172 140 157 159 160 176 173 161 207 198 187 176 171 159 164 139 109 96 95 75 56 38 18 11 20 15 13 355 351 357 359 3 5 2 2 360 357 354 352 352 349 346 344 344 341 339 340 343 344 344 343 344 343
178 185 184 180 161 144 166 177 183 181 190 190 173 172 182 185 184 186 186 182 188 189 186 187 191 178 182 164 172 148 160 174 193 182 119 196 171 181 176 173 188 191 181 181 173 171 167 151 147 151 177 97 58 48 24 24 21 13 357 342 341 346 352 356 359 358 356 355 353 349 349 347 345 343 342 338 336 338 341 344 344 344 342 341 340
172 184 189 179 165 144 167 176 178 183 192 193 181 181 178 181 181 184 185 188 193 189 188 187 190 167 179 182 185 181 178 188 183 185 189 165 144 159 167 185 187 162 185 173 169 179 172 169 176 183 189 142 82 48 37 36 29 9 327 325 331 337 348 349 351 352 349 351 346 343 344 343 342 340 335 333 335 341 345 346 345 342 340 339 339
179 180 179 172 168 163 153 162 186 189 199 194 183 183 181 180 180 185 188 194 194 186 195 188 191 171 184 194 198 196 205 196 169 179 186 181 173 156 165 164 176 169 142 164 173 180 184 185 192 191 190 160 139 75 56 338 93 31 328 316 321 336 345 345 347 345 345 344 339 337 339 341 339 333 330 332 338 343 345 345 342 339 337 337 335
189 182 182 171 172 160 170 179 188 198 200 195 187 181 175 176 179 182 186 187 190 193 193 188 179 186 187 182 76 178 107 25 146 169 159 142 158 140 148 169 190 169 157 173 189 187 198 200 187 195 183 182 168 186 90 327 321 16 326 302 312 329 338 340 338 337 338 336 333 333 338 338 331 326 329 334 340 344 343 341 338 336 335 333 333
180 189 180 172 174 170 168 175 181 189 193 194 185 173 169 176 175 183 177 175 168 178 179 135 158 97 100 151 167 160 67 30 136 159 153 158 163 154 143 151 188 180 144 191 180 187 200 198 189 186 186 186 187 181 171 270 245 104 322 297 296 314 328 332 331 328 331 330 327 332 333 327 322 323 328 335 340 341 339 335 333 333 332 331 331
187 189 164 169 160 155 167 164 165 176 181 180 165 166 169 168 169 157 145 147 145 165 146 144 137 135 141 153 136 110 79 71 132 120 135 160 150 147 149 156 187 211 200 193 196 220 210 177 186 189 194 189 192 179 189 215 248 242 298 290 299 300 312 324 323 323 325 324 325 325 322 318 317 320 327 333 336 336 333 330 330 330 330 330 330
180 170 172 162 152 156 146 146 151 169 176 172 168 171 165 165 150 152 140 100 146 140 129 129 125 127 125 115 126 97 82 79 63 78 71 59 99 138 161 160 167 204 206 214 214 229 205 195 180 196 190 194 188 191 162 219 232 241 251 276 298 304 310 315 315 315 317 318 317 316 313 313 313 317 323 328 331 330 326 326 327 327 327 327 328
185 167 159 171 152 148 151 146 156 165 166 167 171 163 155 156 153 144 140 145 143 136 135 139 130 127 115 115 106 110 99 91 80 72 69 65 73 113 160 200 222 232 209 218 217 217 183 200 204 184 188 192 189 191 186 224 165 243 280 273 285 291 303 308 307 306 309 310 309 309 308 306 308 312 319 323 326 324 321 322 324 325 324 326 327
159 165 158 166 154 152 134 143 152 159 163 163 166 151 151 153 138 136 135 141 129 124 127 127 129 119 117 113 118 110 96 86 76 63 56 54 79 115 217 302 279 254 263 260 257 191 165 186 219 167 182 190 195 194 201 224 144 235 258 269 273 284 299 299 296 295 298 301 303 302 300 301 302 307 313 319 321 318 319 320 322 322 324 326 326
145 159 170 174 165 153 149 144 154 156 155 160 159 154 154 138 137 132 137 144 137 133 130 126 122 132 133 124 109 105 102 96 91 81 79 92 93 128 186 247 244 262 259 264 263 190 144 194 188 152 160 180 183 197 204 224 179 212 254 265 266 280 290 282 278 280 285 290 294 295 297 298 299 302 309 314 316 314 315 318 319 320 323 324 323
161 164 172 174 172 159 157 149 155 153 155 157 159 151 148 144 147 147 152 149 140 135 130 120 121 126 126 123 124 123 124 116 112 110 122 108 99 164 213 227 232 248 251 251 259 260 154 199 151 149 157 166 186 207 229 212 173 200 248 261 263 272 270 273 272 273 270 277 287 293 294 294 294 297 303 307 310 310 312 314 316 319 322 321 322
162 171 174 176 174 168 152 155 160 159 158 157 159 153 153 148 147 140 146 149 138 129 126 120 109 122 129 125 118 112 125 127 125 135 135 137 144 212 233 236 231 222 234 251 260 270 209 150 184 172 160 180 222 211 224 233 227 219 217 253 254 261 269 270 275 268 264 268 280 289 289 289 289 293 298 301 304 306 308 310 314 317 318 320 321
165 164 172 173 173 167 150 156 161 157 155 156 157 158 154 149 139 138 148 143 130 124 125 126 131 125 129 128 123 125 125 119 122 131 137 149 186 203 211 231 242 231 244 253 266 268 274 173 181 171 176 194 241 202 211 238 249 246 256 258 258 251 259 270 268 268 266 265 274 279 282 283 285 288 293 296 299 302 305 308 310 313 315 317 318
171 175 169 176 176 166 160 161 159 156 157 157 161 159 153 149 147 148 145 139 134 135 139 141 140 133 133 136 136 132 122 124 129 125 142 178 196 217 221 225 240 241 231 248 261 267 270 270 190 201 221 202 226 232 219 236 253 257 265 264 255 254 250 254 260 265 263 266 270 275 276 278 280 283 286 290 295 299 302 303 305 309 312 314 316
171 180 172 174 164 161 159 162 160 153 153 153 154 156 153 153 146 140 137 134 136 142 141 140 143 152 153 145 143 139 137 133 141 159 186 198 205 219 221 230 237 240 239 233 250 263 277 278 259 231 242 230 238 225 230 246 251 260 260 267 258 253 251 246 250 255 258 261 266 271 270 270 274 278 280 284 289 293 297 299 301 305 309 311 313
170 169 181 173 157 167 168 167 158 155 156 155 156 154 149 142 136 134 140 138 138 138 141 146 153 155 152 143 140 141 142 142 161 192 199 201 214 221 229 228 232 241 228 240 245 252 262 266 272 261 232 247 254 256 256 264 269 264 258 253 254 253 253 253 250 251 255 260 266 266 263 260 267 272 275 278 283 288 292 295 297 301 305 309 310
161 166 169 177 177 170 163 162 161 159 157 159 158 154 148 140 131 130 132 136 138 142 147 146 151 148 148 147 141 145 155 172 188 192 201 206 211 226 231 234 234 237 242 241 238 243 252 261 267 273 252 243 255 251 236 235 261 276 272 259 255 249 247 252 248 242 239 244 250 255 250 246 254 264 266 273 279 282 286 289 293 297 301 305 305
157 169 168 169 171 160 158 160 162 159 158 159 154 145 142 143 140 140 145 144 139 131 125 132 141 149 150 147 144 155 170 186 186 192 196 205 214 227 227 232 235 236 247 243 236 240 246 257 263 258 264 260 251 267 261 229 250 260 272 284 275 254 242 242 254 248 242 245 250 248 245 244 251 260 268 274 272 273 278 281 287 292 297 299 301
172 168 165 164 162 165 161 163 160 155 154 151 149 148 147 148 147 143 138 131 127 129 142 149 154 154 148 136 147 162 184 187 188 197 190 213 209 224 227 221 230 234 242 245 238 237 245 252 256 260 255 262 259 252 244 231 258 256 237 240 267 274 264 254 249 257 253 254 259 256 244 242 246 253 263 267 261 258 267 274 276 284 289 294 298
173 175 158 153 152 162 152 145 149 154 157 162 158 158 150 134 130 138 142 148 154 154 151 148 148 148 150 162 170 183 192 202 215 215 207 198 208 229 226 209 225 232 240 242 240 239 250 253 260 254 254 257 254 252 246 232 234 256 264 246 261 269 273 271 263 250 249 251 255 256 247 238 245 251 264 271 259 250 259 257 265 272 279 294 303
161 157 166 170 168 162 146 144 158 163 170 166 173 162 157 155 154 149 151 157 158 154 149 144 142 150 163 162 181 181 187 210 224 230 232 229 224 228 240 228 213 223 228 230 236 239 245 252 251 249 254 254 251 242 246 243 246 250 252 248 259 268 271 268 270 255 239 233 246 256 253 240 244 255 262 267 263 245 251 252 252 268 285 296 302
172 163 170 175 176 160 159 162 166 178 180 178 172 171 168 162 153 154 156 156 154 149 137 138 152 161 169 173 168 186 204 223 228 231 234 232 232 231 233 238 235 217 210 221 232 226 237 248 253 246 247 258 257 250 244 252 240 240 245 251 260 266 265 271 276 280 191 184 234 260 265 252 238 251 257 266 265 251 249 252 260 267 278 291 299
176 172 181 178 168 176 179 178 184 186 186 175 174 174 173 168 165 152 147 142 143 144 148 155 146 141 151 160 187 177 209 219 221 225 233 238 238 238 238 237 236 235 230 225 225 228 228 237 247 240 245 248 259 253 250 241 240 237 239 242 245 249 257 256 263 268 246 166 240 265 277 273 237 246 259 265 263 247 246 250 259 268 275 288 296
154 158 175 166 136 147 161 175 185 180 178 175 178 175 172 170 163 140 146 139 144 151 153 149 145 142 145 167 192 205 222 228 229 234 236 243 240 241 244 245 244 241 238 236 234 233 238 241 240 250 244 245 257 255 240 241 244 250 248 246 245 246 250 258 260 269 266 183 223 269 281 283 255 258 262 271 267 254 254 250 253 260 271 284 290
166 168 170 169 170 168 165 163 163 151 140 176 182 173 167 166 162 155 147 148 149 147 146 145 144 159 171 174 189 221 221 215 226 228 236 237 245 244 241 241 244 243 240 238 236 236 235 238 240 245 250 235 240 253 255 233 226 240 247 252 255 255 252 255 267 271 273 166 224 285 286 277 262 258 268 276 277 262 258 261 258 266 275 279 280
169 173 173 174 178 172 172 167 155 154 172 179 183 175 170 166 165 159 143 138 133 129 135 152 161 162 160 164 201 226 222 208 213 213 223 235 239 242 244 245 246 248 246 237 228 229 230 230 235 241 251 248 247 254 259 249 237 244 250 258 263 266 271 280 279 267 266 234 230 228 256 275 281 282 277 285 286 270 267 266 260 266 269 270 269
147 150 163 165 166 171 166 168 168 171 171 180 178 172 173 175 162 124 121 127 134 138 149 163 178 176 171 196 213 228 233 228 216 221 228 239 249 255 257 254 251 251 249 241 240 239 234 230 232 240 247 251 251 255 259 258 261 262 265 269 268 267 261 266 268 263 261 252 242 223 250 268 273 277 282 288 282 272 267 264 266 263 256 260 258
133 153 146 136 101 124 131 132 127 112 130 178 177 174 169 161 141 144 147 155 155 163 182 182 173 171 195 212 225 231 237 242 232 240 243 237 248 253 258 262 261 256 256 249 243 248 250 250 253 258 262 264 265 266 266 263 260 257 261 263 258 253 246 255 259 265 264 269 245 219 239 269 271 274 285 285 282 279 275 269 262 242 236 238 256
131 135 135 132 138 147 153 155 150 136 136 160 160 160 161 165 149 152 166 164 163 164 183 194 187 209 216 218 221 226 235 249 241 241 244 242 248 253 244 258 267 262 259 234 233 243 246 252 258 262 266 271 273 275 275 275 275 272 252 246 246 249 245 243 257 260 269 263 200 196 206 251 279 276 282 290 286 266 255 254 250 224 216 245 267
134 124 123 123 126 127 146 144 143 143 153 159 163 165 167 172 165 163 165 171 175 196 191 207 207 222 230 221 224 230 237 248 251 251 248 238 240 251 249 249 255 261 260 254 248 246 238 240 248 254 257 260 265 266 269 272 273 274 272 275 269 241 245 251 256 265 271 262 212 184 221 251 243 265 295 312 301 293 252 267 205 249 283 286 286